Terminal Aerodrome Forecast
Issued by NWS Columbia, SC

Home | Current Version | Previous Version | Text Only | Print | Product List | Glossary On
Versions: 1 2 3 4 5 6 7 8 9 10 11 12 13 14 15 16 17 18 19 20 21 22 23 24 25 26 27 28 29
000
FTUS42 KCAE 300538
TAFCAE
TAF
KCAE 300538Z 3006/3106 VRB03KT P6SM SCT250
     FM301000 VRB03KT 6SM BR BKN012
     FM301500 05007KT P6SM BKN035
     FM310000 VRB03KT P6SM SCT200=

USA.gov is the U.S. government's official web portal to all federal, state and local government web resources and services.